Tracking 31027 objects as of 19-Jul-2025
HD Live streaming from Space Station
objects crossing your sky now

THOR ABLESTAR DEB

Track THOR ABLESTAR DEB now!
10-day predictions


NORAD ID: 469
Int'l Code: 1961-015FF
Perigee: 748.4 km
Apogee: 820.8 km
Inclination: 66.8 °
Period: 100.4 minutes
Semi major axis: 7155 km
RCS: 0.056 m2 (small)
Launch date: June 29, 1961
Source: United States (US)
Launch site: AIR FORCE EASTERN TEST RANGE (AFETR)

Note: This is SATELLITE DEBRIS
Your satellite tracking list
STARLINK-31611
Track 1 satellite(s)




NASA's NSSDC Master Catalog

Two Line Element Set (TLE):
1 00469U 61015FF  25199.48672188  .00000803  00000-0  31153-3 0  9999
2 00469  66.8341 310.4758 0050552  85.4035 275.2838 14.34282394305147
Source of the keplerian elements: AFSPC